date,time,SUV Intensity [MED/Hr],UV Index,Daily total [MED],Since Last [MED]
27/06/2023,23:58:17,-0.001,0.0,6.341,6.341
27/06/2023,23:59:18,-0.003,0.0,6.341,0.0
28/06/2023,00:00:18,-0.000,0.0,0.0,-6.341
28/06/2023,00:01:18,0.000,0.0,0.0,0.0
28/06/2023,00:02:18,0.000,0.0,0.0,0.0
28/06/2023,00:03:18,0.001,0.0,0.0,0.0
28/06/2023,00:04:18,-0.001,0.0,0.0,0.0
28/06/2023,00:05:18,-0.000,0.0,0.0,0.0
28/06/2023,00:06:18,0.000,0.0,0.0,0.0
28/06/2023,00:07:18,-0.001,0.0,0.0,0.0
28/06/2023,00:08:18,0.000,0.0,0.0,0.0
28/06/2023,00:09:18,0.000,0.0,0.0,0.0
28/06/2023,00:10:17,-0.001,0.0,0.0,0.0
28/06/2023,00:11:18,0.000,0.0,0.0,0.0
28/06/2023,00:12:18,0.000,0.0,0.0,0.0
28/06/2023,00:13:17,0.000,0.0,0.0,0.0
28/06/2023,00:14:18,-0.000,0.0,0.0,0.0
28/06/2023,00:15:19,-0.001,0.0,0.0,0.0
28/06/2023,00:16:18,0.001,0.0,0.0,0.0
28/06/2023,00:17:18,0.001,0.0,0.0,0.0
28/06/2023,00:18:18,0.000,0.0,0.0,0.0
28/06/2023,00:19:18,0.000,0.0,0.0,0.0
28/06/2023,00:20:18,0.001,0.0,0.0,0.0
28/06/2023,00:21:18,0.000,0.0,0.0,0.0
28/06/2023,00:22:18,0.000,0.0,0.0,0.0
28/06/2023,00:23:18,0.001,0.0,0.0,0.0
28/06/2023,00:24:18,-0.001,0.0,0.0,0.0
28/06/2023,00:25:19,0.001,0.0,0.0,0.0
28/06/2023,00:26:18,0.000,0.0,0.0,0.0
28/06/2023,00:27:18,0.000,0.0,0.0,0.0
28/06/2023,00:28:18,-0.001,0.0,0.0,0.0
28/06/2023,00:29:17,0.000,0.0,0.0,0.0
28/06/2023,00:30:18,0.001,0.0,0.0,0.0
28/06/2023,00:31:17,0.000,0.0,0.0,0.0
28/06/2023,00:32:18,0.000,0.0,0.0,0.0
28/06/2023,00:33:18,0.000,0.0,0.0,0.0
28/06/2023,00:34:18,0.001,0.0,0.0,0.0
28/06/2023,00:35:18,0.000,0.0,0.0,0.0
28/06/2023,00:36:18,0.000,0.0,0.0,0.0
28/06/2023,00:37:17,0.000,0.0,0.0,0.0
28/06/2023,00:38:18,0.000,0.0,0.0,0.0
28/06/2023,00:39:18,0.000,0.0,0.0,0.0
28/06/2023,00:40:18,0.001,0.0,0.0,0.0
28/06/2023,00:41:18,0.000,0.0,0.0,0.0
28/06/2023,00:42:18,0.000,0.0,0.0,0.0
28/06/2023,00:43:18,0.000,0.0,0.0,0.0
28/06/2023,00:44:18,0.000,0.0,0.0,0.0
28/06/2023,00:45:18,0.001,0.0,0.0,0.0
28/06/2023,00:46:18,0.000,0.0,0.0,0.0
28/06/2023,00:47:18,0.000,0.0,0.0,0.0
28/06/2023,00:48:18,0.000,0.0,0.0,0.0
28/06/2023,00:49:19,0.000,0.0,0.0,0.0
28/06/2023,00:50:18,-0.001,0.0,0.0,0.0
28/06/2023,00:51:19,0.000,0.0,0.0,0.0
28/06/2023,00:52:18,0.000,0.0,0.0,0.0
28/06/2023,00:53:18,-0.001,0.0,0.0,0.0
28/06/2023,00:54:18,0.000,0.0,0.0,0.0
28/06/2023,00:55:18,0.000,0.0,0.0,0.0
28/06/2023,00:56:18,0.001,0.0,0.0,0.0
28/06/2023,00:57:17,0.001,0.0,0.0,0.0
28/06/2023,00:58:18,0.000,0.0,0.0,0.0
28/06/2023,00:59:18,0.000,0.0,0.0,0.0
28/06/2023,01:00:18,0.000,0.0,0.0,0.0
28/06/2023,01:01:18,-0.001,0.0,0.0,0.0
28/06/2023,01:02:18,0.000,0.0,0.0,0.0
28/06/2023,01:03:19,0.000,0.0,0.0,0.0
28/06/2023,01:04:18,0.001,0.0,0.0,0.0
28/06/2023,01:05:18,0.000,0.0,0.0,0.0
28/06/2023,01:06:18,0.001,0.0,0.0,0.0
28/06/2023,01:07:18,0.001,0.0,0.0,0.0
28/06/2023,01:08:19,0.000,0.0,0.0,0.0
28/06/2023,01:09:18,0.000,0.0,0.0,0.0
28/06/2023,01:10:18,0.001,0.0,0.0,0.0
28/06/2023,01:11:18,0.000,0.0,0.0,0.0
28/06/2023,01:12:18,-0.001,0.0,0.0,0.0
28/06/2023,01:13:18,0.000,0.0,0.0,0.0
28/06/2023,01:14:18,0.000,0.0,0.0,0.0
28/06/2023,01:15:18,0.001,0.0,0.0,0.0
28/06/2023,01:16:18,0.000,0.0,0.0,0.0
28/06/2023,01:17:18,-0.001,0.0,0.0,0.0
28/06/2023,01:18:18,-0.001,0.0,0.0,0.0
28/06/2023,01:19:18,0.001,0.0,0.0,0.0
28/06/2023,01:20:18,0.000,0.0,0.0,0.0
28/06/2023,01:21:18,0.000,0.0,0.0,0.0
28/06/2023,01:22:18,0.000,0.0,0.0,0.0
28/06/2023,01:23:19,0.001,0.0,0.0,0.0
28/06/2023,01:24:18,0.000,0.0,0.0,0.0
28/06/2023,01:25:19,0.000,0.0,0.0,0.0
28/06/2023,01:26:18,0.001,0.0,0.0,0.0
28/06/2023,01:27:18,0.001,0.0,0.0,0.0
28/06/2023,01:28:19,0.000,0.0,0.0,0.0
28/06/2023,01:29:18,0.001,0.0,0.0,0.0
28/06/2023,01:30:18,0.000,0.0,0.0,0.0
28/06/2023,01:31:18,-0.001,0.0,0.0,0.0
28/06/2023,01:32:18,0.000,0.0,0.0,0.0
28/06/2023,01:33:18,0.000,0.0,0.0,0.0
28/06/2023,01:34:18,0.001,0.0,0.0,0.0
28/06/2023,01:35:18,0.000,0.0,0.0,0.0
28/06/2023,01:36:18,0.000,0.0,0.0,0.0
28/06/2023,01:37:18,-0.000,0.0,0.0,0.0
28/06/2023,01:38:18,0.000,0.0,0.0,0.0
28/06/2023,01:39:18,0.000,0.0,0.0,0.0
28/06/2023,01:40:19,0.000,0.0,0.0,0.0
28/06/2023,01:41:18,0.000,0.0,0.0,0.0
28/06/2023,01:42:18,0.000,0.0,0.0,0.0
28/06/2023,01:43:18,0.001,0.0,0.0,0.0
28/06/2023,01:44:18,0.000,0.0,0.0,0.0
28/06/2023,01:45:18,-0.001,0.0,0.0,0.0
28/06/2023,01:46:18,0.001,0.0,0.0,0.0
28/06/2023,01:47:18,0.000,0.0,0.0,0.0
28/06/2023,01:48:18,0.000,0.0,0.0,0.0
28/06/2023,01:49:18,0.000,0.0,0.0,0.0
28/06/2023,01:50:19,0.000,0.0,0.0,0.0
28/06/2023,01:51:19,0.000,0.0,0.0,0.0
28/06/2023,01:52:18,0.000,0.0,0.0,0.0
28/06/2023,01:53:19,0.000,0.0,0.0,0.0
28/06/2023,01:54:18,0.000,0.0,0.0,0.0
28/06/2023,01:55:19,0.000,0.0,0.0,0.0
28/06/2023,01:56:18,-0.001,0.0,0.0,0.0
28/06/2023,01:57:18,0.000,0.0,0.0,0.0
28/06/2023,01:58:18,0.000,0.0,0.0,0.0
28/06/2023,01:59:18,-0.001,0.0,0.0,0.0
28/06/2023,02:00:19,0.000,0.0,0.0,0.0
28/06/2023,02:01:18,0.001,0.0,0.0,0.0
28/06/2023,02:02:18,0.000,0.0,0.0,0.0
28/06/2023,02:03:19,0.001,0.0,0.0,0.0
28/06/2023,02:04:18,0.000,0.0,0.0,0.0
28/06/2023,02:05:18,0.001,0.0,0.0,0.0
28/06/2023,02:06:18,0.000,0.0,0.0,0.0
28/06/2023,02:07:18,-0.000,0.0,0.0,0.0
28/06/2023,02:08:18,0.000,0.0,0.0,0.0
28/06/2023,02:09:18,-0.001,0.0,0.0,0.0
28/06/2023,02:10:19,0.001,0.0,0.0,0.0
28/06/2023,02:11:18,0.000,0.0,0.0,0.0
28/06/2023,02:12:18,0.000,0.0,0.0,0.0
28/06/2023,02:13:18,0.001,0.0,0.0,0.0
28/06/2023,02:14:18,0.001,0.0,0.0,0.0
28/06/2023,02:15:18,0.000,0.0,0.0,0.0
28/06/2023,02:16:19,-0.000,0.0,0.0,0.0
28/06/2023,02:17:18,0.000,0.0,0.0,0.0
28/06/2023,02:18:18,0.000,0.0,0.0,0.0
28/06/2023,02:19:19,0.000,0.0,0.0,0.0
28/06/2023,02:20:18,0.000,0.0,0.0,0.0
28/06/2023,02:21:18,0.000,0.0,0.0,0.0
28/06/2023,02:22:19,0.000,0.0,0.0,0.0
28/06/2023,02:23:18,-0.001,0.0,0.0,0.0
28/06/2023,02:24:18,0.001,0.0,0.0,0.0
28/06/2023,02:25:18,0.001,0.0,0.0,0.0
28/06/2023,02:26:18,0.000,0.0,0.0,0.0
28/06/2023,02:27:18,0.000,0.0,0.0,0.0
28/06/2023,02:28:18,-0.001,0.0,0.0,0.0
28/06/2023,02:29:19,0.001,0.0,0.0,0.0
28/06/2023,02:30:18,0.000,0.0,0.0,0.0
28/06/2023,02:31:18,-0.000,0.0,0.0,0.0
28/06/2023,02:32:18,0.000,0.0,0.0,0.0
28/06/2023,02:33:18,0.001,0.0,0.0,0.0
28/06/2023,02:34:18,0.000,0.0,0.0,0.0
28/06/2023,02:35:19,0.001,0.0,0.0,0.0
28/06/2023,02:36:18,0.000,0.0,0.0,0.0
28/06/2023,02:37:18,0.000,0.0,0.0,0.0
28/06/2023,02:38:19,0.000,0.0,0.0,0.0
28/06/2023,02:39:18,-0.000,0.0,0.0,0.0
28/06/2023,02:40:19,0.000,0.0,0.0,0.0
28/06/2023,02:41:18,0.001,0.0,0.0,0.0
28/06/2023,02:42:18,0.000,0.0,0.0,0.0
28/06/2023,02:43:18,0.001,0.0,0.0,0.0
28/06/2023,02:44:18,0.001,0.0,0.0,0.0
28/06/2023,02:45:18,0.000,0.0,0.0,0.0
28/06/2023,02:46:18,0.000,0.0,0.0,0.0
28/06/2023,02:47:19,0.000,0.0,0.0,0.0
28/06/2023,02:48:18,0.000,0.0,0.0,0.0
28/06/2023,02:49:19,0.000,0.0,0.0,0.0
28/06/2023,02:50:18,0.000,0.0,0.0,0.0
28/06/2023,02:51:19,0.000,0.0,0.0,0.0
28/06/2023,02:52:18,-0.001,0.0,0.0,0.0
28/06/2023,02:53:18,-0.001,0.0,0.0,0.0
28/06/2023,02:54:19,0.000,0.0,0.0,0.0
28/06/2023,02:55:18,0.000,0.0,0.0,0.0
28/06/2023,02:56:19,0.001,0.0,0.0,0.0
28/06/2023,02:57:18,0.000,0.0,0.0,0.0
28/06/2023,02:58:19,0.000,0.0,0.0,0.0
28/06/2023,02:59:18,0.000,0.0,0.0,0.0
28/06/2023,03:00:19,-0.000,0.0,0.0,0.0
28/06/2023,03:01:18,0.001,0.0,0.0,0.0
28/06/2023,03:02:18,0.000,0.0,0.0,0.0
28/06/2023,03:03:18,0.000,0.0,0.0,0.0
28/06/2023,03:04:19,0.001,0.0,0.0,0.0
28/06/2023,03:05:18,0.001,0.0,0.0,0.0
28/06/2023,03:06:19,0.000,0.0,0.0,0.0
28/06/2023,03:07:18,0.000,0.0,0.0,0.0
28/06/2023,03:08:19,-0.000,0.0,0.0,0.0
28/06/2023,03:09:18,0.000,0.0,0.0,0.0
28/06/2023,03:10:19,0.000,0.0,0.0,0.0
28/06/2023,03:11:18,0.000,0.0,0.0,0.0
28/06/2023,03:12:18,0.001,0.0,0.0,0.0
28/06/2023,03:13:19,0.000,0.0,0.0,0.0
28/06/2023,03:14:18,0.000,0.0,0.0,0.0
28/06/2023,03:15:18,0.000,0.0,0.0,0.0
28/06/2023,03:16:18,0.001,0.0,0.0,0.0
28/06/2023,03:17:18,0.000,0.0,0.0,0.0
28/06/2023,03:18:19,0.001,0.0,0.0,0.0
28/06/2023,03:19:18,-0.001,0.0,0.0,0.0
28/06/2023,03:20:19,0.000,0.0,0.0,0.0
28/06/2023,03:21:18,0.000,0.0,0.0,0.0
28/06/2023,03:22:18,0.001,0.0,0.0,0.0
28/06/2023,03:23:18,0.001,0.0,0.0,0.0
28/06/2023,03:24:18,0.000,0.0,0.0,0.0
28/06/2023,03:25:18,0.000,0.0,0.0,0.0
28/06/2023,03:26:19,0.001,0.0,0.0,0.0
28/06/2023,03:27:19,0.001,0.0,0.0,0.0
28/06/2023,03:28:18,0.001,0.0,0.0,0.0
28/06/2023,03:29:17,0.001,0.0,0.0,0.0
28/06/2023,03:30:18,0.001,0.0,0.0,0.0
28/06/2023,03:31:18,0.001,0.0,0.0,0.0
28/06/2023,03:32:19,0.001,0.0,0.0,0.0
28/06/2023,03:33:18,0.001,0.0,0.0,0.0
28/06/2023,03:34:18,-0.000,0.0,0.0,0.0
28/06/2023,03:35:19,0.001,0.0,0.0,0.0
28/06/2023,03:36:18,0.001,0.0,0.0,0.0
28/06/2023,03:37:19,0.001,0.0,0.0,0.0
28/06/2023,03:38:18,0.001,0.0,0.0,0.0
28/06/2023,03:39:18,0.001,0.0,0.0,0.0
28/06/2023,03:40:18,0.001,0.0,0.0,0.0
28/06/2023,03:41:18,0.001,0.0,0.0,0.0
28/06/2023,03:42:18,0.001,0.0,0.0,0.0
28/06/2023,03:43:18,0.001,0.0,0.0,0.0
28/06/2023,03:44:18,0.001,0.0,0.0,0.0
28/06/2023,03:45:18,0.001,0.0,0.0,0.0
28/06/2023,03:46:18,0.001,0.0,0.0,0.0
28/06/2023,03:47:19,0.001,0.0,0.0,0.0
28/06/2023,03:48:18,0.001,0.0,0.0,0.0
28/06/2023,03:49:19,0.001,0.0,0.0,0.0
28/06/2023,03:50:18,0.001,0.0,0.0,0.0
28/06/2023,03:51:19,0.001,0.0,0.0,0.0
28/06/2023,03:52:18,0.001,0.0,0.0,0.0
28/06/2023,03:53:19,0.001,0.0,0.0,0.0
28/06/2023,03:54:18,0.001,0.0,0.0,0.0
28/06/2023,03:55:18,0.001,0.0,0.0,0.0
28/06/2023,03:56:18,0.001,0.0,0.0,0.0
28/06/2023,03:57:19,0.001,0.0,0.0,0.0
28/06/2023,03:58:18,0.001,0.0,0.0,0.0
28/06/2023,03:59:18,0.001,0.0,0.0,0.0
28/06/2023,04:00:18,0.002,0.0,0.0,0.0
28/06/2023,04:01:18,0.001,0.0,0.0,0.0
28/06/2023,04:02:19,0.001,0.0,0.0,0.0
28/06/2023,04:03:19,0.002,0.0,0.0,0.0
28/06/2023,04:04:18,0.001,0.0,0.0,0.0
28/06/2023,04:05:18,0.001,0.0,0.0,0.0
28/06/2023,04:06:19,0.002,0.0,0.0,0.0
28/06/2023,04:07:18,0.002,0.0,0.0,0.0
28/06/2023,04:08:19,0.003,0.0,0.0,0.0
28/06/2023,04:09:18,0.001,0.0,0.0,0.0
28/06/2023,04:10:19,0.002,0.0,0.0,0.0
28/06/2023,04:11:18,0.002,0.0,0.0,0.0
28/06/2023,04:12:18,0.002,0.0,0.0,0.0
28/06/2023,04:13:19,0.002,0.0,0.0,0.0
28/06/2023,04:14:19,0.003,0.0,0.0,0.0
28/06/2023,04:15:18,0.003,0.0,0.0,0.0
28/06/2023,04:16:19,0.003,0.0,0.0,0.0
28/06/2023,04:17:18,0.003,0.0,0.0,0.0
28/06/2023,04:18:19,0.003,0.0,0.0,0.0
28/06/2023,04:19:18,0.004,0.0,0.0,0.0
28/06/2023,04:20:19,0.003,0.0,0.0,0.0
28/06/2023,04:21:18,0.003,0.0,0.0,0.0
28/06/2023,04:22:19,0.004,0.0,0.0,0.0
28/06/2023,04:23:19,0.005,0.0,0.0,0.0
28/06/2023,04:24:19,0.004,0.0,0.0,0.0
28/06/2023,04:25:18,0.005,0.0,0.0,0.0
28/06/2023,04:26:18,0.004,0.0,0.0,0.0
28/06/2023,04:27:18,0.004,0.0,0.0,0.0
28/06/2023,04:28:18,0.004,0.0,0.0,0.0
28/06/2023,04:29:19,0.004,0.0,0.0,0.0
28/06/2023,04:30:18,0.005,0.0,0.0,0.0
28/06/2023,04:31:19,0.005,0.0,0.0,0.0
28/06/2023,04:32:18,0.005,0.0,0.0,0.0
28/06/2023,04:33:19,0.005,0.0,0.0,0.0
28/06/2023,04:34:18,0.005,0.0,0.0,0.0
28/06/2023,04:35:18,0.005,0.0,0.0,0.0
28/06/2023,04:36:19,0.006,0.0,0.0,0.0
28/06/2023,04:37:18,0.005,0.0,0.0,0.0
28/06/2023,04:38:19,0.007,0.0,0.0,0.0
28/06/2023,04:39:18,0.009,0.0,0.0,0.0
28/06/2023,04:40:18,0.009,0.0,0.0,0.0
28/06/2023,04:41:18,0.009,0.0,0.001,0.001
28/06/2023,04:42:18,0.009,0.0,0.001,0.0
28/06/2023,04:43:19,0.010,0.0,0.001,0.0
28/06/2023,04:44:18,0.012,0.0,0.001,0.0
28/06/2023,04:45:19,0.013,0.0,0.001,0.0
28/06/2023,04:46:19,0.013,0.0,0.001,0.0
28/06/2023,04:47:18,0.014,0.0,0.002,0.001
28/06/2023,04:48:18,0.014,0.0,0.002,0.0
28/06/2023,04:49:18,0.016,0.0,0.002,0.0
28/06/2023,04:50:18,0.017,0.0,0.002,0.0
28/06/2023,04:51:18,0.018,0.0,0.003,0.001
28/06/2023,04:52:19,0.018,0.0,0.003,0.0
28/06/2023,04:53:18,0.020,0.0,0.003,0.0
28/06/2023,04:54:18,0.020,0.0,0.004,0.001
28/06/2023,04:55:19,0.020,0.0,0.004,0.0
28/06/2023,04:56:18,0.022,0.0,0.004,0.0
28/06/2023,04:57:19,0.023,0.0,0.005,0.001
28/06/2023,04:58:18,0.023,0.0,0.005,0.0
28/06/2023,04:59:18,0.024,0.0,0.006,0.001
28/06/2023,05:00:19,0.024,0.0,0.006,0.0
28/06/2023,05:01:18,0.024,0.0,0.006,0.0
28/06/2023,05:02:18,0.025,0.0,0.007,0.001
28/06/2023,05:03:19,0.025,0.0,0.007,0.0
28/06/2023,05:04:19,0.027,0.0,0.008,0.001
28/06/2023,05:05:18,0.027,0.0,0.008,0.0
28/06/2023,05:06:19,0.028,0.0,0.009,0.001
28/06/2023,05:07:18,0.030,0.0,0.009,0.0
28/06/2023,05:08:19,0.033,0.0,0.01,0.001
28/06/2023,05:09:18,0.034,0.0,0.01,0.0
28/06/2023,05:10:19,0.038,0.0,0.011,0.001
28/06/2023,05:11:18,0.040,0.0,0.011,0.0
28/06/2023,05:12:19,0.043,0.0,0.012,0.001
28/06/2023,05:13:18,0.043,0.0,0.013,0.001
28/06/2023,05:14:19,0.043,0.0,0.013,0.0
28/06/2023,05:15:18,0.042,0.0,0.014,0.001
28/06/2023,05:16:18,0.044,0.0,0.015,0.001
28/06/2023,05:17:18,0.043,0.0,0.016,0.001
28/06/2023,05:18:19,0.042,0.0,0.016,0.0
28/06/2023,05:19:18,0.043,0.0,0.017,0.001
28/06/2023,05:20:19,0.043,0.0,0.018,0.001
28/06/2023,05:21:18,0.042,0.0,0.018,0.0
28/06/2023,05:22:19,0.042,0.0,0.019,0.001
28/06/2023,05:23:19,0.041,0.0,0.02,0.001
28/06/2023,05:24:18,0.041,0.0,0.02,0.0
28/06/2023,05:25:19,0.041,0.0,0.021,0.001
28/06/2023,05:26:19,0.039,0.0,0.022,0.001
28/06/2023,05:27:18,0.038,0.0,0.022,0.0
28/06/2023,05:28:19,0.037,0.0,0.023,0.001
28/06/2023,05:29:18,0.037,0.0,0.024,0.001
28/06/2023,05:30:19,0.036,0.0,0.024,0.0
28/06/2023,05:31:18,0.036,0.0,0.025,0.001
28/06/2023,05:32:19,0.039,0.0,0.026,0.001
28/06/2023,05:33:18,0.041,0.0,0.026,0.0
28/06/2023,05:34:19,0.040,0.0,0.027,0.001
28/06/2023,05:35:19,0.041,0.0,0.028,0.001
28/06/2023,05:36:18,0.046,0.0,0.028,0.0
28/06/2023,05:37:19,0.052,0.0,0.029,0.001
28/06/2023,05:38:18,0.057,0.0,0.03,0.001
28/06/2023,05:39:19,0.062,0.0,0.031,0.001
28/06/2023,05:40:18,0.064,0.0,0.032,0.001
28/06/2023,05:41:19,0.060,0.0,0.033,0.001
28/06/2023,05:42:19,0.061,0.0,0.034,0.001
28/06/2023,05:43:18,0.059,0.0,0.035,0.001
28/06/2023,05:44:18,0.057,0.0,0.036,0.001
28/06/2023,05:45:19,0.058,0.0,0.037,0.001
28/06/2023,05:46:18,0.056,0.0,0.038,0.001
28/06/2023,05:47:19,0.056,0.0,0.039,0.001
28/06/2023,05:48:19,0.056,0.0,0.04,0.001
28/06/2023,05:49:18,0.058,0.0,0.041,0.001
28/06/2023,05:50:19,0.061,0.0,0.042,0.001
28/06/2023,05:51:19,0.063,0.0,0.043,0.001
28/06/2023,05:52:18,0.064,0.0,0.044,0.001
28/06/2023,05:53:19,0.070,0.0,0.045,0.001
28/06/2023,05:54:16,0.071,0.0,0.046,0.001
28/06/2023,05:55:18,0.071,0.0,0.047,0.001
28/06/2023,05:56:19,0.069,0.0,0.048,0.001
28/06/2023,05:57:19,0.065,0.0,0.05,0.002
28/06/2023,05:58:18,0.065,0.0,0.051,0.001
28/06/2023,05:59:19,0.065,0.0,0.052,0.001
28/06/2023,06:00:19,0.061,0.0,0.053,0.001
28/06/2023,06:01:19,0.065,0.0,0.054,0.001
28/06/2023,06:02:19,0.064,0.0,0.055,0.001
28/06/2023,06:03:18,0.063,0.0,0.056,0.001
28/06/2023,06:04:18,0.063,0.0,0.057,0.001
28/06/2023,06:05:48,0.062,0.0,0.059,0.002
28/06/2023,06:07:19,0.070,0.0,0.06,0.001
28/06/2023,06:08:19,0.068,0.0,0.061,0.001
28/06/2023,06:09:18,0.068,0.0,0.063,0.002
28/06/2023,06:10:18,0.066,0.0,0.064,0.001
28/06/2023,06:11:19,0.067,0.0,0.065,0.001
28/06/2023,06:12:18,0.070,0.0,0.066,0.001
28/06/2023,06:13:18,0.073,0.0,0.067,0.001
28/06/2023,06:14:19,0.071,0.0,0.068,0.001
28/06/2023,06:15:18,0.072,0.0,0.07,0.002
28/06/2023,06:16:18,0.073,0.0,0.071,0.001
28/06/2023,06:17:19,0.074,0.0,0.072,0.001
28/06/2023,06:18:19,0.071,0.0,0.073,0.001
28/06/2023,06:19:18,0.076,0.0,0.074,0.001
28/06/2023,06:20:19,0.080,0.0,0.076,0.002
28/06/2023,06:21:18,0.081,0.0,0.077,0.001
28/06/2023,06:22:19,0.085,0.0,0.078,0.001
28/06/2023,06:23:18,0.092,0.0,0.08,0.002
28/06/2023,06:24:19,0.100,0.0,0.081,0.001
28/06/2023,06:25:18,0.104,0.0,0.083,0.002
28/06/2023,06:26:18,0.108,0.0,0.085,0.002
28/06/2023,06:27:19,0.113,0.0,0.087,0.002
28/06/2023,06:28:18,0.120,0.0,0.089,0.002
28/06/2023,06:29:18,0.129,0.0,0.091,0.002
28/06/2023,06:30:19,0.126,0.0,0.093,0.002
28/06/2023,06:31:19,0.122,0.0,0.095,0.002
28/06/2023,06:32:18,0.121,0.0,0.097,0.002
28/06/2023,06:33:18,0.122,0.0,0.099,0.002
28/06/2023,06:34:19,0.116,0.0,0.101,0.002
28/06/2023,06:35:19,0.119,0.0,0.103,0.002
28/06/2023,06:36:18,0.120,0.0,0.105,0.002
28/06/2023,06:37:19,0.124,0.0,0.107,0.002
28/06/2023,06:38:18,0.123,0.0,0.109,0.002
28/06/2023,06:39:19,0.125,0.0,0.111,0.002
28/06/2023,06:40:18,0.130,0.0,0.113,0.002
28/06/2023,06:41:19,0.126,0.0,0.115,0.002
28/06/2023,06:42:18,0.131,0.0,0.118,0.003
28/06/2023,06:43:18,0.144,0.0,0.12,0.002
28/06/2023,06:44:19,0.155,0.0,0.122,0.002
28/06/2023,06:45:19,0.158,0.0,0.125,0.003
28/06/2023,06:46:19,0.155,0.0,0.128,0.003
28/06/2023,06:47:18,0.150,0.0,0.13,0.002
28/06/2023,06:48:19,0.165,0.0,0.133,0.003
28/06/2023,06:49:19,0.164,0.0,0.135,0.002
28/06/2023,06:50:18,0.170,0.0,0.138,0.003
28/06/2023,06:51:18,0.170,0.0,0.141,0.003
28/06/2023,06:52:19,0.167,0.0,0.144,0.003
28/06/2023,06:53:19,0.169,0.0,0.147,0.003
28/06/2023,06:54:18,0.170,0.0,0.15,0.003
28/06/2023,06:55:19,0.171,0.0,0.152,0.002
28/06/2023,06:56:18,0.178,0.0,0.155,0.003
28/06/2023,06:57:18,0.177,0.0,0.158,0.003
28/06/2023,06:58:19,0.183,0.0,0.161,0.003
28/06/2023,06:59:18,0.174,0.0,0.164,0.003
28/06/2023,07:00:19,0.171,0.0,0.167,0.003
28/06/2023,07:01:18,0.178,0.0,0.17,0.003
28/06/2023,07:02:19,0.180,0.0,0.173,0.003
28/06/2023,07:03:18,0.176,0.0,0.176,0.003
28/06/2023,07:04:18,0.180,0.0,0.179,0.003
28/06/2023,07:05:19,0.171,0.0,0.182,0.003
28/06/2023,07:06:19,0.190,0.0,0.185,0.003
28/06/2023,07:07:18,0.201,0.0,0.188,0.003
28/06/2023,07:08:18,0.201,0.0,0.191,0.003
28/06/2023,07:09:19,0.212,0.0,0.195,0.004
28/06/2023,07:10:18,0.242,1.0,0.199,0.004
28/06/2023,07:11:19,0.254,1.0,0.203,0.004
28/06/2023,07:12:18,0.265,1.0,0.207,0.004
28/06/2023,07:13:19,0.280,1.0,0.212,0.005
28/06/2023,07:14:19,0.280,1.0,0.216,0.004
28/06/2023,07:15:19,0.281,1.0,0.221,0.005
28/06/2023,07:16:18,0.270,1.0,0.226,0.005
28/06/2023,07:17:19,0.264,1.0,0.23,0.004
28/06/2023,07:18:19,0.241,1.0,0.234,0.004
28/06/2023,07:19:19,0.225,1.0,0.238,0.004
28/06/2023,07:20:18,0.217,0.0,0.242,0.004
28/06/2023,07:21:19,0.209,0.0,0.245,0.003
28/06/2023,07:22:19,0.192,0.0,0.249,0.004
28/06/2023,07:23:18,0.177,0.0,0.252,0.003
28/06/2023,07:24:19,0.168,0.0,0.255,0.003
28/06/2023,07:25:19,0.185,0.0,0.258,0.003
28/06/2023,07:26:22,0.188,0.0,0.261,0.003
28/06/2023,07:27:20,0.184,0.0,0.264,0.003
28/06/2023,07:28:18,0.186,0.0,0.267,0.003
28/06/2023,07:29:19,0.188,0.0,0.27,0.003
28/06/2023,07:30:18,0.207,0.0,0.273,0.003
28/06/2023,07:31:19,0.206,0.0,0.277,0.004
28/06/2023,07:32:19,0.212,0.0,0.28,0.003
28/06/2023,07:33:19,0.224,1.0,0.284,0.004
28/06/2023,07:34:19,0.232,1.0,0.288,0.004
28/06/2023,07:35:18,0.229,1.0,0.292,0.004
28/06/2023,07:36:19,0.230,1.0,0.295,0.003
28/06/2023,07:37:18,0.240,1.0,0.299,0.004
28/06/2023,07:38:19,0.223,1.0,0.303,0.004
28/06/2023,07:39:19,0.237,1.0,0.307,0.004
28/06/2023,07:40:19,0.241,1.0,0.311,0.004
28/06/2023,07:41:18,0.242,1.0,0.315,0.004
28/06/2023,07:42:19,0.251,1.0,0.319,0.004
28/06/2023,07:43:18,0.273,1.0,0.323,0.004
28/06/2023,07:44:19,0.282,1.0,0.328,0.005
28/06/2023,07:45:19,0.299,1.0,0.333,0.005
28/06/2023,07:46:19,0.288,1.0,0.338,0.005
28/06/2023,07:47:19,0.310,1.0,0.343,0.005
28/06/2023,07:48:19,0.302,1.0,0.348,0.005
28/06/2023,07:49:19,0.282,1.0,0.353,0.005
28/06/2023,07:50:19,0.274,1.0,0.357,0.004
28/06/2023,07:51:18,0.256,1.0,0.362,0.005
28/06/2023,07:52:19,0.265,1.0,0.366,0.004
28/06/2023,07:53:18,0.280,1.0,0.371,0.005
28/06/2023,07:54:18,0.263,1.0,0.375,0.004
28/06/2023,07:55:19,0.261,1.0,0.38,0.005
28/06/2023,07:56:19,0.276,1.0,0.384,0.004
28/06/2023,07:57:19,0.261,1.0,0.389,0.005
28/06/2023,07:58:18,0.239,1.0,0.393,0.004
28/06/2023,07:59:19,0.214,0.0,0.396,0.003
28/06/2023,08:00:18,0.225,1.0,0.4,0.004
28/06/2023,08:01:19,0.228,1.0,0.404,0.004
28/06/2023,08:02:19,0.218,1.0,0.408,0.004
28/06/2023,08:03:18,0.221,1.0,0.411,0.003
28/06/2023,08:04:19,0.233,1.0,0.415,0.004
28/06/2023,08:05:19,0.227,1.0,0.419,0.004
28/06/2023,08:06:18,0.237,1.0,0.423,0.004
28/06/2023,08:07:19,0.233,1.0,0.427,0.004
28/06/2023,08:08:19,0.251,1.0,0.431,0.004
28/06/2023,08:09:19,0.249,1.0,0.435,0.004
28/06/2023,08:10:18,0.227,1.0,0.439,0.004
28/06/2023,08:11:19,0.231,1.0,0.443,0.004
28/06/2023,08:12:18,0.244,1.0,0.447,0.004
28/06/2023,08:13:19,0.253,1.0,0.451,0.004
28/06/2023,08:14:19,0.247,1.0,0.455,0.004
28/06/2023,08:15:19,0.229,1.0,0.459,0.004
28/06/2023,08:16:19,0.217,0.0,0.463,0.004
28/06/2023,08:17:18,0.209,0.0,0.466,0.003
28/06/2023,08:18:19,0.226,1.0,0.47,0.004
28/06/2023,08:19:18,0.234,1.0,0.474,0.004
28/06/2023,08:20:19,0.267,1.0,0.478,0.004
28/06/2023,08:21:18,0.296,1.0,0.483,0.005
28/06/2023,08:22:19,0.334,1.0,0.488,0.005
28/06/2023,08:23:18,0.405,1.0,0.494,0.006
28/06/2023,08:24:19,0.457,1.0,0.501,0.007
28/06/2023,08:25:19,0.406,1.0,0.508,0.007
28/06/2023,08:26:19,0.399,1.0,0.515,0.007
28/06/2023,08:27:19,0.395,1.0,0.522,0.007
28/06/2023,08:28:18,0.352,1.0,0.528,0.006
28/06/2023,08:29:19,0.347,1.0,0.534,0.006
28/06/2023,08:30:18,0.387,1.0,0.54,0.006
28/06/2023,08:31:18,0.461,1.0,0.547,0.007
28/06/2023,08:32:18,0.505,1.0,0.555,0.008
28/06/2023,08:33:19,0.523,1.0,0.564,0.009
28/06/2023,08:34:19,0.579,1.0,0.573,0.009
28/06/2023,08:35:19,0.613,1.0,0.583,0.01
28/06/2023,08:36:19,0.574,1.0,0.593,0.01
28/06/2023,08:37:19,0.523,1.0,0.602,0.009
28/06/2023,08:38:19,0.506,1.0,0.61,0.008
28/06/2023,08:39:19,0.544,1.0,0.619,0.009
28/06/2023,08:40:19,0.541,1.0,0.628,0.009
28/06/2023,08:41:48,0.474,1.0,0.641,0.013
28/06/2023,08:43:19,0.428,1.0,0.652,0.011
28/06/2023,08:44:19,0.377,1.0,0.659,0.007
28/06/2023,08:45:19,0.349,1.0,0.665,0.006
28/06/2023,08:46:19,0.338,1.0,0.671,0.006
28/06/2023,08:47:19,0.340,1.0,0.676,0.005
28/06/2023,08:48:19,0.319,1.0,0.682,0.006
28/06/2023,08:49:19,0.283,1.0,0.687,0.005
28/06/2023,08:50:19,0.247,1.0,0.691,0.004
28/06/2023,08:51:19,0.243,1.0,0.695,0.004
28/06/2023,08:52:19,0.252,1.0,0.699,0.004
28/06/2023,08:53:18,0.278,1.0,0.704,0.005
28/06/2023,08:54:19,0.299,1.0,0.709,0.005
28/06/2023,08:55:19,0.293,1.0,0.714,0.005
28/06/2023,08:56:18,0.257,1.0,0.718,0.004
28/06/2023,08:57:19,0.217,0.0,0.722,0.004
28/06/2023,08:58:19,0.215,0.0,0.726,0.004
28/06/2023,08:59:19,0.228,1.0,0.73,0.004
28/06/2023,09:00:19,0.236,1.0,0.733,0.003
28/06/2023,09:01:19,0.236,1.0,0.737,0.004
28/06/2023,09:02:19,0.253,1.0,0.741,0.004
28/06/2023,09:03:19,0.316,1.0,0.746,0.005
28/06/2023,09:04:19,0.371,1.0,0.752,0.006
28/06/2023,09:05:18,0.407,1.0,0.758,0.006
28/06/2023,09:06:19,0.429,1.0,0.765,0.007
28/06/2023,09:07:18,0.421,1.0,0.772,0.007
28/06/2023,09:08:19,0.417,1.0,0.779,0.007
28/06/2023,09:09:19,0.398,1.0,0.786,0.007
28/06/2023,09:10:19,0.359,1.0,0.792,0.006
28/06/2023,09:11:19,0.337,1.0,0.798,0.006
28/06/2023,09:12:19,0.304,1.0,0.804,0.006
28/06/2023,09:13:18,0.303,1.0,0.809,0.005
28/06/2023,09:14:19,0.360,1.0,0.814,0.005
28/06/2023,09:15:18,0.410,1.0,0.821,0.007
28/06/2023,09:16:19,0.400,1.0,0.827,0.006
28/06/2023,09:17:19,0.341,1.0,0.834,0.007
28/06/2023,09:18:19,0.283,1.0,0.839,0.005
28/06/2023,09:19:19,0.236,1.0,0.843,0.004
28/06/2023,09:20:19,0.231,1.0,0.847,0.004
28/06/2023,09:21:19,0.258,1.0,0.851,0.004
28/06/2023,09:22:18,0.272,1.0,0.855,0.004
28/06/2023,09:23:19,0.298,1.0,0.86,0.005
28/06/2023,09:24:19,0.364,1.0,0.866,0.006
28/06/2023,09:25:19,0.352,1.0,0.872,0.006
28/06/2023,09:26:19,0.263,1.0,0.877,0.005
28/06/2023,09:27:18,0.232,1.0,0.881,0.004
28/06/2023,09:28:19,0.232,1.0,0.885,0.004
28/06/2023,09:29:18,0.269,1.0,0.889,0.004
28/06/2023,09:30:18,0.280,1.0,0.894,0.005
28/06/2023,09:31:19,0.265,1.0,0.898,0.004
28/06/2023,09:32:19,0.279,1.0,0.903,0.005
28/06/2023,09:33:18,0.288,1.0,0.907,0.004
28/06/2023,09:34:19,0.287,1.0,0.912,0.005
28/06/2023,09:35:18,0.299,1.0,0.917,0.005
28/06/2023,09:36:19,0.286,1.0,0.922,0.005
28/06/2023,09:37:18,0.307,1.0,0.927,0.005
28/06/2023,09:38:19,0.326,1.0,0.932,0.005
28/06/2023,09:39:19,0.294,1.0,0.938,0.006
28/06/2023,09:40:19,0.297,1.0,0.942,0.004
28/06/2023,09:41:19,0.325,1.0,0.947,0.005
28/06/2023,09:42:19,0.359,1.0,0.953,0.006
28/06/2023,09:43:19,0.414,1.0,0.96,0.007
28/06/2023,09:44:18,0.446,1.0,0.967,0.007
28/06/2023,09:45:19,0.441,1.0,0.974,0.007
28/06/2023,09:46:18,0.440,1.0,0.981,0.007
28/06/2023,09:47:19,0.476,1.0,0.989,0.008
28/06/2023,09:48:19,0.511,1.0,0.997,0.008
28/06/2023,09:49:22,0.503,1.0,1.006,0.009
28/06/2023,09:50:19,0.545,1.0,1.015,0.009
28/06/2023,09:51:19,0.633,1.0,1.024,0.009
28/06/2023,09:52:19,0.690,2.0,1.036,0.012
28/06/2023,09:53:19,0.731,2.0,1.047,0.011
28/06/2023,09:54:19,0.750,2.0,1.06,0.013
28/06/2023,09:55:19,0.741,2.0,1.072,0.012
28/06/2023,09:56:19,0.732,2.0,1.085,0.013